User: anonymous
Location: Unspecified
(0.0000°N, 0.0000°E)
Time: 21:24:24
(UTC+00:00)
Language:

Explorer 7 - Orbit

View from above orbital plane
View from above orbital plane
View from above satellite
View from above satellite

Ground track
Ground track

The orbit data is extracted from the following two-line orbital elements,

1 00022U 59009A   14110.49120669  .00006154  00000-0  54127-3 0  8853
2 00022 050.2841 191.6476 0156008 324.7486 034.3218 14.88821816889052
Epoch (UTC): 20 April 2014 11:47:20
Eccentricity: 0.0156008
inclination: 50.2841°
perigee height: 493 km
apogee height: 710 km
right ascension of ascending node: 191.6476°
argument of perigee: 324.7486°
revolutions per day: 14.88821816
mean anomaly at epoch: 34.3218°
orbit number at epoch: 88905

The dashed part of the orbit path shows where the satellite is in the earth's shadow,  

DLR